EHI
1 1 1 0 0 0 0 0 0 0 0 0 0 0 0 0 0 0 0 1 3 6 9 8 6 6 6 6 7 8 10 11 11 11 10 10 9 8 7 6 6 6 6 6 6 5 6 8 9
0 0 0 0 0 0 0 0 0 0 0 0 0 0 0 0 0 0 0 2 3 5 7 7 7 6 6 6 7 9 11 12 10 9 9 10 10 10 8 7 7 6 6 6 6 5 6 7 8
0 0 0 0 0 0 0 0 0 0 0 0 0 0 0 0 0 0 0 2 3 4 5 6 7 8 7 7 9 11 13 12 11 9 9 10 11 10 9 7 7 7 7 8 8 6 6 7 6
1 1 1 0 0 0 0 0 0 0 0 0 0 0 0 0 0 0 1 2 3 3 4 6 8 9 9 9 10 12 13 13 11 10 10 10 10 10 9 8 7 8 9 10 11 10 8 6 5
1 1 1 0 0 0 0 0 0 0 0 0 0 0 0 0 0 0 1 2 3 3 3 5 8 9 9 10 10 11 13 12 10 9 10 11 10 10 9 9 8 8 8 9 11 10 8 5 3
0 0 0 0 0 0 0 0 0 1 0 0 0 0 0 0 0 0 1 1 1 2 2 4 6 7 8 9 10 11 11 11 8 7 8 10 10 10 10 9 9 8 8 8 10 10 8 6 5
1 1 1 0 0 0 0 0 0 0 0 0 0 0 0 0 0 0 0 0 0 1 1 2 2 3 4 7 9 9 9 9 7 6 6 7 8 9 9 9 8 9 9 8 10 11 9 8 7
2 2 2 1 0 0 0 0 0 0 0 1 1 0 0 1 1 0 0 0 0 0 0 1 1 1 1 3 5 5 6 7 5 4 4 4 5 7 8 7 7 8 8 8 9 9 8 6 5
3 3 3 1 1 0 0 0 0 0 1 3 3 2 2 3 2 1 0 0 0 0 0 1 1 1 0 0 1 2 3 5 5 4 4 4 4 5 6 6 6 6 6 5 5 4 3 2 1
2 3 4 3 2 1 0 1 1 1 2 5 6 6 5 4 2 1 0 0 0 0 0 0 0 0 0 0 0 0 1 2 3 4 4 4 4 4 4 4 4 3 3 2 1 1 0 0 0
3 5 6 4 2 1 1 2 1 1 2 5 9 9 7 4 2 0 0 0 0 0 0 0 0 0 0 0 0 0 0 0 1 2 3 3 3 3 2 1 1 1 1 0 0 0 0 0 0
6 7 7 4 2 1 1 2 2 2 2 5 9 9 6 4 2 1 0 0 0 0 0 0 0 0 0 0 0 0 0 0 0 0 2 3 3 3 2 1 0 0 0 0 0 0 0 0 0
5 5 5 4 2 1 2 3 3 3 5 7 8 7 6 4 2 1 0 0 0 0 0 0 0 0 0 0 0 0 0 0 0 0 2 3 3 3 2 1 0 0 0 0 0 0 0 0 0
2 2 2 1 1 1 3 5 5 5 8 8 6 6 5 4 2 1 1 1 0 0 0 0 0 0 0 0 0 0 0 0 0 0 2 3 3 3 2 1 0 0 0 0 0 0 0 0 0
0 0 0 0 0 1 2 3 4 6 8 6 5 5 5 4 4 4 3 2 0 0 0 0 0 0 0 0 0 0 0 0 0 1 2 3 4 4 3 1 0 0 0 0 0 0 0 0 0
0 0 0 0 0 0 1 1 3 7 7 6 5 4 5 5 5 5 4 2 1 1 1 0 0 0 0 0 0 0 0 0 1 2 3 4 5 5 3 1 0 0 0 0 0 0 0 0 0
0 0 0 1 1 1 0 0 2 6 7 6 5 4 4 4 4 4 4 2 1 2 2 1 1 1 0 1 1 1 2 2 3 3 3 4 6 6 3 1 1 0 0 0 0 0 0 0 0
0 0 0 1 2 2 1 1 3 6 7 6 6 5 3 3 4 4 3 3 2 3 3 2 3 3 3 4 4 5 5 5 5 4 4 5 6 6 4 3 2 1 0 0 0 0 0 0 0
0 0 0 0 1 2 2 2 4 6 7 6 6 6 4 4 5 6 5 5 5 5 5 6 7 8 8 8 8 8 7 6 5 4 4 5 6 6 5 4 2 1 0 0 0 0 0 0 0
0 0 0 0 1 1 1 2 5 7 7 7 6 6 5 6 9 11 10 10 9 8 8 9 10 11 10 10 10 9 9 7 6 5 4 4 4 5 5 4 2 1 0 0 0 0 0 0 0
0 0 0 1 1 1 1 1 3 6 8 8 7 6 6 8 12 16 17 15 13 11 10 11 12 11 10 10 9 9 9 8 7 6 5 4 4 5 6 5 3 1 0 0 0 0 0 0 0
0 0 1 2 2 2 2 1 2 6 8 7 7 6 6 8 12 17 19 19 16 13 11 11 12 12 11 10 9 8 7 7 7 7 6 4 4 5 7 6 3 1 0 0 0 0 0 0 0
0 0 1 2 2 3 3 2 2 4 6 7 6 6 6 7 9 14 17 18 17 14 12 11 12 12 11 10 9 7 6 6 7 7 6 5 4 5 6 6 3 1 0 0 0 0 0 0 0
0 0 1 1 1 2 3 2 1 2 4 6 5 5 5 6 7 11 14 15 15 14 12 11 10 10 10 9 8 7 6 6 6 6 6 6 6 6 6 6 4 2 1 1 0 1 1 0 0
0 0 0 0 0 1 1 1 1 1 2 4 4 4 4 5 6 8 12 14 14 14 14 11 9 8 8 8 7 6 6 6 6 6 6 6 6 6 6 6 5 3 3 3 2 2 2 1 1
0 0 0 0 0 0 0 0 0 0 1 3 3 3 4 5 6 7 11 13 13 14 14 13 10 8 7 7 7 7 6 6 7 6 6 6 6 6 6 6 6 5 5 5 5 4 4 3 3
0 0 0 0 0 0 0 0 0 0 1 1 2 2 2 3 5 7 8 10 12 13 15 14 12 9 9 9 9 8 7 7 7 6 6 6 6 6 6 6 6 6 6 6 6 6 6 5 5
0 0 0 0 0 0 0 0 0 0 0 0 1 1 1 2 5 7 7 9 12 14 15 15 13 11 12 12 11 9 8 7 6 5 5 6 6 6 6 6 6 5 5 5 6 6 6 6 6
0 0 0 0 0 0 0 0 0 0 0 0 0 0 0 2 6 8 9 10 13 14 16 17 16 14 14 14 12 9 7 6 6 5 5 6 6 6 6 6 5 4 4 4 5 6 6 6 6
0 0 0 0 0 0 0 0 0 0 0 0 0 1 1 2 6 9 10 12 13 14 15 18 18 16 14 12 10 8 6 5 6 7 6 6 5 4 4 4 4 4 3 4 4 5 6 6 5
Wind_Speed
6 5 2 1 2 4 2 2 1 2 3 3 4 5 5 4 2 1 1 2 3 3 2 4 6 7 8 8 9 10 11 12 12 12 11 11 10 10 10 11 11 11 11 11 11 11 11 11 10
4 4 1 1 4 3 3 2 2 2 3 3 4 5 5 4 3 3 1 2 4 3 2 3 6 7 8 8 9 10 11 11 11 10 10 10 9 9 10 10 10 10 11 11 11 11 11 11 10
5 3 1 3 2 2 1 1 2 3 3 2 3 4 3 2 2 2 1 4 4 3 2 3 7 7 8 8 9 9 9 10 9 9 8 8 8 8 9 9 10 10 10 10 10 10 10 10 10
2 1 2 3 1 1 2 1 3 3 3 4 4 4 3 3 2 2 4 5 5 3 2 2 7 7 7 8 8 8 9 9 8 8 7 7 8 8 8 8 9 9 9 9 9 9 9 9 9
1 2 4 3 3 2 0 2 2 3 2 4 4 4 3 3 4 5 5 5 4 3 2 2 7 7 7 7 7 8 8 8 8 7 7 7 7 7 7 7 8 8 8 8 8 8 9 9 9
2 3 4 2 3 2 1 2 3 4 4 4 4 3 2 2 4 4 4 4 3 3 2 2 5 7 7 7 7 7 7 7 7 6 7 7 7 7 6 7 8 8 8 8 8 8 8 8 8
2 3 1 0 1 2 0 2 2 3 3 2 3 3 1 1 2 4 4 4 3 3 3 2 2 3 5 6 6 6 6 6 6 6 6 7 7 6 6 6 7 7 7 7 7 7 8 8 7
3 3 1 0 1 1 1 2 2 3 3 3 4 5 3 2 3 5 5 4 3 3 2 2 2 2 2 2 4 4 5 5 5 5 6 6 6 6 5 6 6 6 6 6 6 6 7 6 6
3 4 0 2 2 1 1 2 1 3 5 3 2 3 3 6 6 6 4 3 2 2 1 1 2 2 2 1 2 2 3 4 4 4 5 4 3 3 3 5 6 6 6 6 6 6 6 5 4
3 2 4 3 3 3 1 2 2 3 3 3 4 5 7 7 6 5 4 3 2 2 2 1 1 1 1 1 1 1 2 2 3 2 2 2 3 2 3 4 5 5 5 6 5 5 4 3 2
3 4 3 2 3 4 3 2 2 5 2 4 6 8 7 7 5 5 4 3 3 3 2 2 2 2 2 1 1 1 1 1 2 2 2 2 2 2 2 2 2 3 3 3 3 3 2 2 1
2 3 3 2 2 3 3 3 2 3 4 4 8 10 8 7 6 5 4 4 3 3 3 2 2 2 2 1 1 1 1 1 1 1 2 2 2 2 2 1 1 2 1 2 1 1 2 2 1
1 2 1 1 2 2 3 2 2 1 3 8 9 8 7 6 5 3 3 3 4 3 3 3 3 3 2 2 1 1 1 1 1 1 2 2 2 2 1 1 1 1 1 1 1 1 1 1 1
1 0 1 1 1 2 4 1 2 2 6 8 8 7 6 6 5 4 3 3 3 4 3 3 3 3 3 3 2 1 2 1 2 1 1 2 2 2 1 1 1 1 1 1 1 1 1 0 0
2 3 4 2 2 2 5 2 2 4 7 7 7 6 5 5 5 5 5 4 4 4 3 3 3 3 3 4 3 2 2 2 2 1 2 2 2 2 2 1 1 1 1 1 1 1 1 1 0
3 3 2 2 1 2 4 2 2 5 8 7 6 6 5 4 5 5 5 4 4 4 3 3 3 4 3 3 3 2 2 2 2 1 2 2 2 2 2 1 1 1 1 1 1 1 1 0 0
4 1 1 2 1 2 3 3 2 5 7 7 6 6 5 4 4 4 4 5 4 4 4 3 3 4 4 4 3 2 2 2 1 1 1 2 2 2 2 1 1 1 1 1 1 1 0 0 0
3 2 2 2 2 2 1 3 2 5 7 7 6 5 5 6 6 4 4 4 4 4 4 4 3 4 4 3 3 2 2 2 1 1 1 1 1 2 2 2 1 1 1 1 1 1 1 0 1
4 3 3 4 2 2 2 3 3 5 5 6 6 6 6 6 4 3 3 4 4 3 3 3 3 3 3 3 2 2 1 1 1 1 1 1 1 2 2 1 1 1 1 1 1 1 1 0 0
3 2 2 2 1 2 1 3 2 4 6 6 7 7 7 5 4 4 4 4 4 4 4 3 3 3 3 2 2 2 2 1 1 0 1 1 1 2 2 2 1 1 1 0 0 1 1 0 1
2 4 4 2 2 3 2 4 2 2 2 3 4 5 6 8 7 6 5 5 4 5 5 4 3 3 3 3 2 2 2 2 1 1 0 0 1 1 1 2 2 1 1 1 1 1 2 1 0
3 4 4 3 3 1 1 2 5 2 2 4 5 6 7 7 7 7 7 6 7 6 4 4 4 3 3 3 3 3 3 2 2 1 1 0 0 1 1 2 2 2 1 1 2 1 1 2 1
4 2 3 2 3 2 2 1 7 1 3 6 6 7 7 7 8 8 8 8 6 5 5 4 4 3 3 3 3 3 2 2 1 1 1 0 0 0 1 1 1 1 1 2 2 1 2 2 2
4 6 6 5 5 1 2 2 6 4 6 5 5 6 6 6 7 7 6 4 4 4 5 5 5 3 3 3 3 3 3 3 2 1 1 1 1 1 1 1 1 2 2 2 2 2 2 2 2
5 6 4 4 3 4 2 2 8 6 5 6 5 5 5 5 5 6 6 5 5 5 5 5 5 4 3 4 3 3 4 3 3 3 2 2 1 1 1 1 1 1 2 2 2 2 2 2 2
4 8 7 5 4 4 1 4 7 5 3 3 3 3 4 4 5 6 6 6 6 6 5 5 6 5 4 4 3 3 3 2 2 2 2 2 1 1 1 1 1 2 2 2 1 1 2 2 2
5 3 5 7 2 0 4 5 7 2 2 0 2 2 3 4 5 5 5 5 5 5 5 6 5 4 4 4 3 2 2 2 2 2 1 1 1 1 1 1 1 1 1 1 1 1 2 1 1
4 8 6 6 5 2 4 4 5 4 4 2 2 3 3 3 4 4 4 5 5 5 4 4 4 4 4 4 4 3 2 2 2 2 2 1 1 1 1 1 1 1 1 1 1 1 1 1 2
3 4 5 5 5 6 3 7 6 6 5 5 4 3 4 4 5 5 4 4 4 4 4 4 4 3 3 3 3 2 2 2 2 2 2 2 1 1 1 1 1 1 1 1 1 2 1 1 2
3 5 7 5 3 4 4 8 4 3 3 3 3 2 2 3 3 4 4 4 4 4 4 4 4 4 4 3 3 3 2 2 2 2 2 1 1 1 1 1 1 1 1 1 1 2 2 2 2
Wind_Direction
172 155 155 163 53 45 0 323 34 37 47 40 61 73 84 74 84 125 303 93 94 110 112 123 113 111 112 113 109 109 113 116 121 126 132 136 138 140 143 146 147 149 150 152 153 152 149 145 143
155 164 176 54 67 43 335 333 57 62 124 123 72 64 66 58 57 97 88 99 99 112 109 122 120 118 114 112 110 109 112 115 119 123 127 133 138 143 146 149 151 152 154 158 158 156 154 149 147
172 195 79 55 73 158 230 279 113 96 99 81 66 52 62 73 79 118 162 124 99 92 87 130 128 124 118 115 114 115 114 115 117 122 125 130 133 139 145 150 150 152 156 159 158 155 154 148 145
170 75 51 54 19 252 192 183 134 112 61 53 77 60 47 47 116 123 117 119 110 101 98 136 133 128 122 119 118 116 115 115 117 120 121 126 130 135 139 146 149 153 155 156 156 153 150 144 141
85 68 47 21 334 326 35 128 111 92 74 69 79 81 38 27 86 103 112 117 118 111 100 126 132 129 126 124 122 122 120 119 118 116 116 120 126 133 137 144 148 151 153 152 149 144 144 142 139
60 66 60 8 336 341 19 79 94 85 90 88 84 85 37 52 99 120 119 110 113 123 112 109 140 132 129 128 125 123 121 121 120 118 114 114 117 125 133 144 151 153 156 155 152 147 148 145 142
97 83 85 211 310 329 59 76 94 113 104 104 108 95 48 65 116 117 109 101 93 97 98 82 107 128 132 127 121 120 119 117 116 112 109 108 111 116 123 131 138 142 150 154 156 152 152 150 152
130 94 43 273 194 294 112 79 94 116 113 116 109 129 181 193 118 101 94 90 90 89 84 81 79 86 95 109 128 126 119 114 112 109 104 103 104 106 108 111 125 133 135 140 143 143 146 149 155
110 77 237 221 185 222 120 86 67 76 97 88 88 133 140 123 112 99 90 81 97 113 94 93 100 99 97 106 126 114 108 103 101 98 99 90 70 72 82 101 112 117 121 127 131 135 135 130 136
100 122 230 212 183 166 135 111 121 90 85 80 75 80 103 116 121 123 128 141 154 166 163 143 142 130 115 134 99 71 74 72 73 71 76 75 69 66 78 89 101 99 99 99 106 116 109 103 96
147 189 235 246 176 154 135 113 116 128 163 186 156 138 129 127 133 143 155 165 179 177 173 163 165 149 134 133 111 88 78 80 83 85 82 85 80 68 60 61 71 71 75 70 73 72 81 89 96
164 241 220 231 161 137 144 133 128 168 203 160 146 142 140 145 157 167 168 174 163 153 178 169 166 159 170 157 125 115 110 105 103 98 100 100 92 80 73 71 71 71 73 79 78 84 85 95 111
185 267 250 195 133 131 114 125 137 162 124 119 128 136 150 159 169 171 160 155 150 160 176 172 166 177 181 160 160 130 127 125 115 102 108 119 116 108 100 97 88 92 95 96 87 87 99 117 135
198 66 351 40 101 130 122 115 118 177 128 128 140 153 168 171 171 157 157 161 165 171 174 166 163 170 165 160 152 143 136 127 109 111 123 122 124 131 125 109 89 84 96 97 101 106 117 128 137
74 54 16 19 73 122 107 39 214 163 136 143 159 169 177 183 175 177 178 175 171 167 161 157 155 149 155 154 151 146 139 129 130 139 133 130 139 137 131 120 94 75 90 89 75 65 77 96 115
38 55 20 304 81 134 121 246 246 147 148 158 169 177 181 189 188 188 174 169 162 153 152 158 150 140 145 141 137 137 136 133 141 136 127 134 146 138 130 126 111 77 85 87 77 47 46 63 68
31 49 259 303 326 119 137 234 224 156 160 170 178 181 183 188 196 194 181 174 164 159 153 146 134 134 137 132 121 116 113 117 121 121 128 136 142 139 132 128 109 92 90 85 87 71 56 98 292
227 233 247 238 250 120 182 243 218 175 176 184 185 184 186 195 207 195 182 169 159 155 150 146 137 131 128 121 106 93 87 89 93 97 108 120 126 127 128 123 108 101 98 79 70 79 64 262 261
174 186 248 254 198 147 213 242 228 185 184 193 194 192 199 207 199 169 167 159 150 151 153 157 148 141 129 117 118 117 113 97 90 109 119 144 141 135 135 134 120 122 153 186 161 129 95 349 132
165 192 259 297 99 140 214 289 253 196 200 198 198 199 200 195 174 170 170 170 172 171 174 171 162 152 149 145 139 136 131 134 138 91 70 133 156 159 164 159 161 162 178 209 193 143 144 261 105
215 198 211 206 33 48 74 333 308 273 212 201 201 198 194 193 192 183 180 187 187 189 185 179 169 160 159 147 120 99 81 62 61 41 359 336 151 164 169 164 166 180 182 211 223 195 179 210 256
247 226 190 158 104 317 102 280 294 274 262 233 221 202 197 197 191 185 184 188 196 195 176 161 154 151 153 148 147 152 159 177 199 189 202 279 144 174 174 165 172 185 185 204 225 197 189 180 222
209 117 117 117 121 56 19 144 286 324 258 250 235 216 204 195 191 190 192 193 188 177 163 157 148 146 139 142 153 158 171 179 155 136 142 221 305 240 206 185 178 190 202 211 212 182 187 188 193
133 71 56 51 70 23 256 166 273 246 233 245 230 215 201 191 186 185 181 167 162 153 153 152 152 159 154 154 161 167 176 170 162 179 188 241 286 302 269 203 193 201 208 214 215 205 200 209 202
101 92 42 5 12 256 253 184 250 250 241 227 223 214 192 182 175 169 167 167 168 164 165 161 164 173 171 168 178 182 183 183 192 200 202 219 252 283 274 253 219 221 220 213 200 203 217 218 212
166 142 156 190 215 271 322 235 257 268 265 236 208 195 175 173 173 177 177 175 176 178 175 168 171 180 178 175 183 185 182 190 203 204 200 209 225 250 260 240 237 242 229 218 193 213 232 226 230
139 157 158 131 139 307 286 287 302 300 323 226 174 165 179 185 181 183 175 172 175 179 180 177 177 177 180 175 168 179 184 188 198 196 189 205 229 241 247 241 251 257 235 216 193 228 246 243 244
132 141 105 118 144 238 291 277 253 266 268 260 203 196 198 191 181 177 172 177 182 182 178 162 167 176 179 172 177 183 183 185 182 165 177 196 223 241 246 258 261 271 260 216 207 237 250 243 266
107 94 104 110 144 155 231 266 231 222 226 221 227 214 198 193 184 179 177 179 174 164 166 168 168 163 171 179 179 173 177 178 170 181 199 200 216 231 248 257 266 278 275 237 213 236 236 240 270
146 157 149 148 197 167 177 260 280 215 222 211 222 225 206 194 180 170 163 157 161 169 173 176 176 180 187 179 171 174 171 169 180 199 210 196 207 242 239 247 281 285 284 257 227 246 249 241 254